Wind_Speed
9 14 15 7 9 17 18 12 5 8 4 9 5 8 7 11 15 22 23 18 13 7 18 18 20 19 19 17 17 13 6 4 5 5 6 4 3 7 10 13 15 13 15 17
13 20 10 13 15 15 17 10 10 9 8 8 16 8 10 11 6 21 26 24 18 10 8 11 21 21 21 19 15 11 3 3 3 6 5 4 2 5 9 11 14 15 18 18
18 13 9 16 19 22 23 18 7 9 10 7 1 11 13 11 13 15 27 29 22 17 6 2 5 13 10 12 9 5 2 5 2 5 5 1 2 5 8 11 13 14 16 17
16 15 17 16 19 18 23 12 2 6 9 8 4 7 20 10 12 19 19 25 29 20 10 6 5 5 5 9 8 4 1 2 3 4 4 1 4 7 11 14 13 15 15 13
21 12 12 19 18 21 19 11 3 6 4 3 5 9 8 6 9 10 24 16 19 21 23 12 1 3 1 6 8 7 3 2 3 5 4 4 5 10 12 11 15 17 15 8
25 20 24 21 20 17 14 14 8 5 4 2 6 6 4 6 14 3 19 19 19 19 21 22 6 5 5 5 7 6 3 2 3 5 6 6 8 12 12 14 17 17 14 8
19 26 21 21 19 16 12 11 4 4 3 4 7 7 5 16 7 4 19 25 23 24 23 17 13 13 6 5 3 5 3 1 2 6 6 7 10 13 16 18 18 18 14 9
15 14 18 18 19 16 13 15 6 5 3 2 6 7 9 6 4 4 3 16 17 29 24 21 16 10 10 6 5 2 2 2 5 6 7 9 13 14 17 18 17 15 12 8
9 15 10 14 13 16 28 25 18 12 3 6 7 10 14 6 9 4 7 14 16 16 12 18 14 10 12 11 9 6 5 5 9 10 10 12 16 17 17 18 15 13 10 6
18 24 18 14 13 15 17 8 10 8 2 3 4 9 11 11 13 10 9 8 10 8 11 13 14 12 11 15 9 10 8 7 12 13 13 15 18 18 17 14 12 8 6 4
26 25 25 22 17 17 19 23 17 12 6 7 4 6 8 2 1 4 13 12 14 13 13 12 8 9 13 16 14 12 13 12 15 13 14 16 16 14 12 9 6 4 4 5
23 25 27 27 22 13 13 16 24 18 8 5 7 10 7 10 11 7 13 12 11 15 11 11 11 13 18 20 18 16 17 17 13 13 15 14 14 11 7 3 3 3 4 6
26 20 14 19 23 18 14 10 18 19 16 16 8 8 17 17 14 14 19 15 14 15 15 22 20 20 20 23 22 22 20 17 16 15 15 12 12 8 5 4 3 2 4 7
10 15 9 8 9 13 15 19 17 15 20 24 14 10 21 18 14 14 18 17 17 14 19 23 23 23 19 21 23 19 17 19 19 16 14 13 11 8 6 4 3 4 6 9
9 15 14 17 18 22 21 23 18 18 18 26 19 16 21 20 17 12 20 20 19 16 21 16 18 17 16 15 15 16 16 16 15 17 17 15 12 9 7 6 6 7 9 11
6 4 12 18 17 21 22 22 20 19 20 21 27 21 18 18 11 10 16 24 19 15 13 17 17 19 17 16 16 15 14 14 17 21 20 17 14 12 10 8 8 9 11 12
7 9 11 13 13 13 21 13 18 21 22 16 12 20 24 22 11 14 15 20 18 18 15 9 8 12 19 18 17 16 16 19 21 22 20 20 19 16 12 10 10 12 13 13
14 15 15 13 17 4 0 11 10 11 13 15 10 15 10 24 13 13 21 24 21 19 13 12 8 5 4 16 22 22 23 24 24 24 24 24 21 17 13 13 13 14 15 14
17 18 12 5 18 17 17 16 20 15 14 10 7 10 11 20 20 18 18 22 20 19 19 17 14 12 10 8 13 26 27 27 26 25 25 24 21 18 17 15 15 17 18 15
7 17 18 15 6 3 6 11 14 10 8 22 21 24 22 20 14 17 12 15 22 19 18 22 21 15 15 13 15 18 26 29 28 26 24 25 23 22 18 15 19 20 18 17
5 7 2 3 4 7 14 13 13 4 3 21 24 26 23 19 12 9 9 10 11 8 8 10 18 17 15 16 20 19 20 24 25 25 26 26 25 21 15 17 19 21 19 20
4 1 2 6 7 8 18 13 11 6 3 6 16 20 22 16 7 4 3 4 6 8 12 10 8 16 15 18 22 23 22 20 21 24 26 26 24 16 16 17 21 22 19 24
4 7 8 10 17 17 15 12 11 7 6 8 11 10 18 16 10 10 10 10 7 7 9 8 6 8 12 19 21 20 21 17 19 26 26 26 17 16 14 17 20 20 26 25
9 15 17 14 13 13 19 23 21 13 14 14 8 5 18 14 9 8 20 22 16 13 9 10 11 12 13 18 22 18 20 21 22 36 17 12 16 17 16 21 23 26 23 22
8 8 8 17 20 18 21 23 22 18 15 22 15 2 1 13 25 33 17 22 20 16 14 11 13 16 18 17 18 17 18 18 19 16 14 9 9 29 38 36 29 19 22 25
12 14 14 9 8 12 8 11 14 21 26 28 22 15 14 5 14 13 20 22 20 16 16 18 19 21 21 15 21 16 14 13 15 19 8 15 19 33 28 24 17 17 19 20
Wind_Direction
203 251 251 211 273 307 280 279 243 19 212 214 101 333 112 290 237 225 223 250 261 256 208 218 228 241 234 242 250 266 296 332 200 211 166 137 74 30 12 7 5 1 344 339
224 233 205 269 287 292 289 314 214 57 146 196 359 331 200 181 275 226 223 225 251 248 227 215 229 244 234 231 242 256 276 11 189 176 166 132 79 25 1 355 2 351 355 336
227 195 250 268 281 285 282 256 221 132 107 43 37 243 211 197 214 223 217 227 231 245 264 208 198 232 242 222 212 188 356 6 248 172 171 151 357 346 338 352 349 350 354 346
245 228 258 276 283 295 302 303 143 222 181 137 67 259 224 218 237 237 233 227 230 231 247 256 230 230 244 186 176 163 102 40 285 201 209 250 320 318 338 339 342 351 351 347
227 230 243 277 285 310 310 317 123 170 302 206 348 312 120 342 329 324 228 232 225 233 232 263 278 193 82 199 158 143 140 159 245 232 244 281 309 312 330 331 341 348 343 336
256 251 268 274 283 289 305 289 272 276 256 240 290 315 344 14 1 78 200 216 226 235 226 241 239 225 250 205 177 173 140 86 248 242 263 307 320 310 311 323 333 331 329 327
254 252 252 258 263 250 271 271 272 295 358 244 284 284 286 312 334 135 205 212 221 240 233 218 209 210 230 221 160 145 142 70 319 265 277 299 313 318 310 317 324 322 330 320
262 287 238 223 241 260 255 251 235 228 185 254 208 248 309 333 352 333 175 206 231 228 235 228 203 197 232 243 234 268 168 246 297 289 294 303 308 306 303 311 309 322 319 315
240 254 245 271 277 278 268 254 251 273 112 135 220 265 284 242 150 205 215 222 224 231 219 202 202 212 224 252 237 271 294 272 281 293 295 305 307 303 297 302 310 310 304 314
249 262 283 276 308 324 213 254 249 274 150 235 300 275 256 295 236 223 174 185 234 218 223 221 202 221 231 249 237 246 262 260 276 290 303 306 303 296 292 296 299 297 312 344
249 254 275 290 291 315 227 232 235 256 230 160 155 248 302 226 326 217 254 246 199 232 235 216 205 215 253 251 252 251 263 268 275 289 299 297 290 283 286 284 287 304 342 10
246 250 255 272 284 287 296 297 238 230 240 211 200 206 192 175 160 149 165 158 179 211 224 217 229 246 239 236 243 249 267 266 267 280 289 275 277 287 278 272 290 321 350 357
237 231 233 270 271 270 280 324 247 241 246 268 211 241 203 201 186 197 193 182 183 196 211 224 232 239 245 248 246 260 261 259 263 271 258 266 281 286 262 266 284 309 321 335
215 216 230 230 266 291 313 314 305 290 247 246 255 230 189 181 198 264 201 219 199 206 218 221 225 233 234 242 249 255 258 257 260 245 244 260 273 258 252 260 289 311 325 330
263 241 260 268 270 274 291 308 303 311 305 264 260 230 209 225 219 241 270 216 195 202 218 219 219 216 224 227 231 238 243 239 235 239 243 253 258 252 247 265 295 314 317 320
351 311 294 292 290 285 289 291 297 308 320 329 248 225 226 224 204 273 197 198 204 215 232 232 226 217 220 225 228 228 232 235 238 238 241 246 252 250 250 268 290 305 309 314
350 8 318 290 292 284 274 331 304 306 318 312 298 266 236 211 213 195 205 210 222 234 207 199 194 217 225 228 230 231 239 243 242 243 244 244 244 235 242 266 285 294 301 306
295 311 316 314 303 287 318 323 317 331 346 322 270 250 274 252 215 209 221 224 218 209 219 236 253 262 266 243 238 234 234 238 242 240 240 239 238 236 244 261 280 290 292 290
264 283 294 267 289 270 283 309 312 337 25 28 2 276 273 175 195 211 212 198 202 214 232 238 253 268 280 291 267 245 243 243 245 243 241 239 237 234 243 260 277 283 288 290
281 253 263 263 263 289 259 344 317 268 109 87 101 94 144 160 167 131 146 192 201 223 230 226 235 249 270 280 302 279 254 248 248 249 242 238 237 236 245 263 283 289 286 283
324 18 40 308 275 251 250 285 350 154 182 93 98 95 99 97 101 134 156 188 202 221 260 248 231 229 270 291 303 282 270 255 257 252 238 235 239 240 252 269 282 286 283 289
326 171 320 311 294 286 259 264 10 48 220 93 114 91 95 86 126 168 161 187 237 273 278 283 261 236 266 287 268 262 261 267 260 260 247 240 239 240 250 273 280 276 278 289
250 257 240 257 269 282 288 292 293 299 319 330 276 173 98 87 65 17 6 357 314 282 299 299 243 246 268 265 275 270 261 264 281 281 270 244 228 232 246 275 282 271 289 287
277 282 272 275 325 271 256 270 278 287 306 305 329 357 239 262 312 8 342 334 334 286 289 270 261 255 264 267 281 267 261 276 266 257 249 196 189 219 240 258 284 281 280 290
271 274 283 302 311 301 253 254 253 261 255 283 285 357 277 231 251 254 284 304 310 286 293 272 261 261 255 256 275 273 282 280 269 265 317 264 305 228 248 255 270 277 288 291
267 271 273 307 359 11 350 262 241 223 243 260 265 290 215 235 264 250 265 269 283 280 265 267 263 267 270 277 277 272 283 282 267 294 333 240 227 225 247 250 276 285 284 287
Height
3170 3171 3170 3170 3172 3172 3173 3176 3172 3176 3176 3173 3175 3175 3172 3174 3173 3172 3174 3174 3174 3175 3176 3178 3181 3182 3183 3183 3185 3187 3189 3189 3190 3190 3190 3190 3189 3189 3189 3188 3187 3184 3183 3181
3168 3165 3167 3170 3170 3170 3172 3173 3172 3170 3166 3177 3176 3172 3172 3169 3165 3168 3170 3172 3173 3175 3175 3176 3179 3180 3181 3182 3184 3186 3187 3188 3189 3189 3189 3189 3189 3188 3188 3187 3186 3182 3180 3179
3165 3163 3166 3167 3168 3169 3168 3170 3169 3169 3169 3168 3166 3169 3166 3165 3164 3166 3167 3169 3171 3174 3175 3176 3177 3178 3180 3181 3182 3184 3186 3187 3188 3188 3188 3188 3188 3187 3187 3186 3184 3182 3180 3176
3163 3161 3164 3165 3165 3168 3164 3166 3166 3166 3166 3164 3163 3157 3155 3160 3165 3164 3165 3166 3169 3172 3173 3175 3176 3177 3178 3180 3181 3182 3184 3186 3187 3187 3187 3187 3187 3187 3185 3184 3183 3181 3179 3175
3157 3158 3160 3161 3161 3165 3165 3162 3164 3163 3162 3161 3160 3157 3155 3159 3161 3158 3159 3162 3164 3167 3169 3172 3174 3175 3177 3179 3180 3181 3183 3185 3186 3186 3186 3186 3186 3185 3185 3183 3181 3179 3179 3176
3155 3156 3158 3157 3156 3160 3162 3160 3161 3160 3159 3161 3158 3158 3152 3152 3155 3156 3157 3158 3160 3162 3163 3167 3171 3173 3175 3177 3178 3179 3181 3184 3185 3185 3185 3185 3185 3184 3184 3182 3180 3179 3178 3175
3154 3152 3153 3156 3156 3156 3157 3158 3159 3160 3160 3162 3157 3156 3151 3147 3150 3151 3154 3155 3158 3158 3160 3163 3166 3168 3172 3174 3176 3178 3179 3182 3183 3184 3183 3183 3183 3182 3180 3179 3178 3176 3174 3173
3151 3148 3148 3151 3153 3155 3154 3155 3157 3161 3163 3161 3158 3154 3148 3147 3148 3147 3147 3152 3154 3154 3159 3161 3161 3163 3168 3171 3173 3175 3177 3179 3181 3181 3182 3181 3180 3180 3178 3177 3176 3174 3173 3170
3148 3145 3145 3148 3150 3153 3149 3151 3154 3154 3155 3157 3155 3151 3148 3149 3149 3150 3152 3151 3154 3154 3155 3157 3157 3158 3165 3168 3170 3172 3173 3176 3178 3179 3180 3179 3178 3178 3176 3175 3174 3173 3172 3170
3144 3143 3141 3144 3146 3142 3142 3148 3150 3150 3154 3155 3155 3152 3147 3147 3147 3150 3152 3153 3151 3152 3153 3154 3153 3155 3159 3165 3168 3170 3171 3173 3175 3176 3177 3177 3176 3175 3173 3173 3172 3171 3169 3168
3140 3142 3135 3140 3141 3142 3143 3143 3145 3146 3147 3149 3156 3149 3144 3145 3145 3146 3149 3150 3151 3149 3151 3151 3150 3153 3159 3162 3164 3166 3167 3170 3172 3174 3174 3174 3173 3172 3171 3170 3169 3167 3167 3167
3133 3135 3134 3134 3137 3139 3140 3141 3141 3141 3143 3142 3142 3143 3142 3144 3143 3144 3146 3146 3147 3147 3146 3146 3148 3154 3158 3160 3161 3163 3165 3167 3170 3171 3171 3171 3170 3170 3169 3168 3167 3166 3166 3165
3127 3129 3131 3131 3133 3136 3137 3137 3137 3137 3138 3137 3140 3139 3139 3140 3142 3143 3144 3145 3146 3146 3147 3149 3151 3153 3155 3156 3158 3160 3162 3165 3167 3168 3168 3168 3168 3167 3167 3167 3166 3165 3164 3163
3124 3124 3126 3130 3130 3131 3132 3133 3135 3135 3133 3133 3132 3133 3135 3137 3140 3140 3142 3141 3142 3144 3146 3148 3149 3150 3152 3154 3156 3158 3160 3162 3164 3165 3165 3165 3166 3165 3165 3164 3164 3163 3162 3161
3123 3122 3123 3125 3128 3128 3129 3130 3130 3131 3131 3128 3127 3127 3130 3132 3133 3134 3134 3137 3139 3141 3143 3146 3147 3148 3150 3152 3153 3155 3157 3159 3160 3161 3161 3163 3163 3162 3162 3162 3161 3160 3159 3157
3119 3120 3119 3121 3124 3125 3125 3126 3127 3127 3125 3121 3122 3123 3126 3129 3131 3131 3131 3133 3135 3138 3143 3144 3145 3146 3147 3148 3150 3151 3152 3153 3154 3155 3157 3158 3159 3158 3158 3158 3158 3157 3156 3155
3120 3120 3121 3121 3122 3121 3123 3122 3123 3123 3121 3121 3119 3121 3120 3122 3125 3126 3129 3129 3131 3138 3141 3141 3142 3143 3143 3144 3146 3147 3148 3149 3150 3151 3152 3154 3155 3155 3156 3157 3156 3155 3154 3152
3120 3120 3121 3120 3119 3119 3121 3121 3119 3119 3119 3117 3116 3116 3115 3117 3120 3122 3124 3127 3129 3135 3138 3138 3139 3140 3140 3141 3142 3142 3142 3143 3144 3146 3147 3148 3150 3151 3152 3152 3152 3152 3151 3150
3119 3118 3119 3119 3118 3117 3116 3116 3114 3114 3117 3113 3110 3109 3110 3116 3117 3117 3120 3122 3126 3131 3133 3135 3136 3136 3137 3137 3137 3137 3137 3138 3138 3140 3142 3145 3146 3147 3147 3149 3149 3150 3148 3147
3115 3114 3116 3115 3116 3115 3113 3113 3113 3113 3117 3111 3108 3108 3112 3117 3118 3118 3120 3121 3124 3127 3128 3128 3130 3131 3132 3132 3133 3133 3132 3133 3133 3135 3139 3141 3142 3142 3144 3146 3148 3146 3144 3142
3113 3112 3112 3113 3112 3111 3112 3112 3113 3112 3120 3112 3110 3108 3109 3114 3118 3119 3120 3121 3121 3122 3121 3122 3124 3126 3127 3129 3129 3131 3130 3130 3132 3133 3133 3136 3137 3140 3143 3143 3141 3140 3139 3138
3112 3113 3112 3113 3113 3111 3110 3111 3113 3118 3114 3112 3111 3110 3108 3113 3117 3118 3118 3117 3116 3117 3118 3119 3120 3122 3123 3123 3123 3124 3122 3123 3126 3127 3129 3130 3134 3138 3138 3136 3135 3134 3133 3131
3109 3109 3109 3112 3110 3109 3108 3109 3107 3111 3113 3112 3111 3107 3107 3109 3111 3113 3114 3115 3115 3116 3115 3116 3116 3117 3118 3118 3117 3117 3116 3116 3123 3124 3124 3123 3126 3131 3131 3131 3129 3128 3128 3125
3106 3105 3104 3103 3101 3101 3104 3104 3102 3105 3110 3109 3112 3108 3109 3109 3111 3108 3110 3111 3114 3114 3110 3111 3112 3113 3114 3115 3113 3115 3114 3116 3113 3112 3108 3100 3118 3124 3126 3128 3123 3122 3120 3119
3103 3101 3099 3098 3096 3093 3092 3095 3098 3099 3102 3104 3110 3107 3107 3110 3113 3110 3105 3104 3112 3113 3106 3110 3110 3109 3109 3109 3108 3110 3110 3110 3111 3115 3110 3109 3113 3116 3117 3119 3121 3117 3116 3116
3097 3097 3097 3097 3095 3092 3089 3089 3092 3095 3096 3097 3103 3104 3103 3101 3106 3103 3106 3106 3111 3109 3104 3105 3105 3102 3100 3097 3102 3104 3104 3104 3109 3109 3105 3104 3106 3109 3113 3114 3115 3112 3112 3111